[[{"header":{"parameterUnit":"m.s-1","parameterCategory":1,"la1":30.2991,"la2":30.254,"lo1":-89.0895,"lo2":-89.0444,"dx":0.0017,"dy":0.0017,"nx":28,"ny":28,"refTime":"2022-11-16T15:00:00:Z","depth":0,"parameterNumber":2,"parameterNumberName":"U-component_of_WINDS"},"data":[0,0,0,0,0,0,0,0,0,0,0,0,0,0,0,0,0,0,0,0,0,0,0,0,0,0,0,0,0,0,0,0,0,0,0,0,0,0,0,0,0,0,0,0,0,0,0,0,0,0,0,0,0,0,0,0,0,0,1.5676,1.5677,0,1.5713,1.5713,1.5714,1.5705,1.5704,1.5704,1.5703,1.5741,1.5742,1.5744,0,0,0,0,0,0,0,0,0,0,0,0,0,1.5601,1.5602,1.5676,1.5677,1.5677,1.5713,1.5713,1.5714,1.5705,1.5704,1.5704,1.5703,1.574,1.5742,1.5744,0,0,0,0,0,0,0,0,0,0,0,0,0,1.5635,1.5603,1.5676,1.5677,1.5678,1.5713,1.5713,1.5714,1.5705,1.5704,1.5703,1.5702,1.5739,1.5742,1.5744,1.5781,0,0,1.5752,1.5753,0,0,0,0,0,0,0,0,1.5633,1.5638,1.5677,1.5677,1.5678,1.5703,1.57,1.5736,1.5706,1.5695,1.5703,1.5702,1.5729,1.5732,1.5742,1.5782,1.5784,1.5752,1.5754,1.5755,1.5755,0,0,0,0,0,0,0,1.5631,1.5636,1.5691,1.5677,1.5678,1.5676,1.568,1.5707,1.5717,1.5696,1.5695,1.57,1.5729,1.5739,1.5742,1.5785,1.5752,1.5754,1.5756,1.5757,1.5859,1.586,0,0,0,0,0,0,1.5628,1.5634,1.569,1.5692,1.5652,1.5679,1.5683,1.5696,1.5717,1.5719,1.5701,1.5699,1.5735,1.5739,1.5744,1.5788,1.5755,1.5757,1.5758,1.5858,1.5859,1.586,0,0,0,0,0,0,1.5626,1.5633,1.5688,1.5663,1.567,1.5681,1.5696,1.5698,1.5707,1.5721,1.5723,1.5709,1.5735,1.574,1.5772,1.579,1.5758,1.576,1.5856,1.5858,1.586,1.5878,0,0,0,0,0,0,1.5624,1.5632,1.5646,1.5663,1.5671,1.5715,1.5697,1.5699,1.5712,1.571,1.5729,1.5731,1.5734,1.5768,1.5774,1.5792,1.5762,1.5855,1.5857,1.5859,1.5876,1.588,1.5884,0,0,0,0,0,1.5621,1.5649,1.5646,1.5653,1.5688,1.5716,1.5721,1.5724,1.5713,1.5727,1.5736,1.573,1.5787,1.5772,1.5778,1.5798,1.5854,1.5856,1.5859,1.5874,1.5879,1.5884,0,0,0,0,0,0,1.5633,1.5651,1.5649,1.5683,1.5698,1.5715,1.5732,1.573,1.5748,1.5746,1.575,1.5754,1.5787,1.5795,1.5778,1.5835,1.5819,1.5823,1.5828,1.5833,1.5837,1.5834,1.5764,0,0,0,0,0,1.564,1.5661,1.5676,1.5704,1.5712,1.5721,1.5734,1.5735,1.5751,1.5757,1.5768,1.5784,1.5806,1.582,1.584,1.5877,1.5882,1.5894,1.5898,1.5901,1.5905,1.5926,1.5932,1.5869,1.5869,1.5869,0,0,1.5653,1.5666,1.5679,1.5707,1.5719,1.5741,1.5727,1.575,1.5767,1.5761,1.5792,1.5801,1.5819,1.5854,1.5869,1.5862,1.5923,1.5905,1.5907,1.5909,1.593,1.5936,1.5941,1.5871,1.5871,1.5871,0,0,1.569,1.5701,1.5727,1.5739,1.5758,1.5764,1.577,1.5788,1.5794,1.5825,1.5821,1.5841,1.5878,1.5891,1.5903,1.5946,1.5942,1.5953,1.5974,1.5995,1.6,1.6004,1.602,1.6026,1.5956,1.5956,1.5956,0,1.5704,1.5737,1.574,1.5765,1.5778,1.5774,1.5801,1.5813,1.5837,1.5846,1.5838,1.5884,1.5896,1.5935,1.5945,1.5955,1.5963,1.595,1.5999,1.6003,1.6007,1.6023,1.6029,1.5958,1.5958,1.5957,1.5957,0,1.5755,1.5778,1.5797,1.5821,1.5836,1.5861,1.5869,1.5884,1.5884,1.5892,1.5924,1.5938,1.5962,1.5971,1.5972,1.6011,1.6005,1.5998,1.5982,1.6014,1.6029,1.6035,1.5959,1.5959,1.5959,1.5958,0,0,1.5798,1.5825,1.5832,1.5843,1.5864,1.5882,1.5908,1.5932,1.5945,1.5962,1.5984,1.6016,1.601,1.6023,1.6025,1.6044,1.6078,1.6034,1.6034,1.6042,1.6123,1.6129,1.6135,1.6076,1.6077,1.6078,1.6121,0,1.5837,1.5882,1.5887,1.5927,1.5949,1.5947,1.5969,1.5985,1.5993,1.6013,1.6022,1.6045,1.6034,1.6042,1.606,1.607,1.6094,1.6067,1.6097,1.6098,1.6093,1.6143,1.6149,1.6189,1.6127,1.6128,1.6129,0,1.5888,1.5907,1.595,1.5969,1.5979,1.5999,1.6022,1.6041,1.6059,1.6064,1.6079,1.6079,1.6107,1.609,1.6129,1.611,1.6123,1.613,1.6132,1.6134,1.6115,1.6148,1.6202,1.6208,1.6138,1.6137,1.6136,0,1.5916,1.5953,1.5984,1.5993,1.6016,1.6031,1.6041,1.6058,1.6073,1.6093,1.6102,1.6125,1.6138,1.6156,1.6163,1.615,1.6201,1.6185,1.6206,1.6206,1.6217,1.6216,1.6275,1.6225,1.6225,1.6225,1.6225,0,1.5959,1.5985,1.5997,1.6016,1.6046,1.6051,1.6081,1.6091,1.6107,1.6128,1.6127,1.6147,1.6155,1.6177,1.6182,1.6214,1.6219,1.6224,1.6225,1.6224,1.6224,1.6233,1.623,1.6226,1.6226,1.6226,1.6226,0,1.5995,1.6004,1.6037,1.6057,1.6062,1.6084,1.6101,1.6119,1.6128,1.6155,1.6161,1.6174,1.62,1.6209,1.6239,1.6243,1.628,1.6279,1.6274,1.6274,1.6296,1.6294,1.6362,1.6372,1.6315,1.6316,1.6316,0,1.6022,1.6042,1.6064,1.6078,1.6089,1.6112,1.6127,1.6134,1.6149,1.6173,1.6189,1.6214,1.6235,1.6277,1.6289,1.6313,1.6312,1.6335,1.6316,1.6315,1.6313,1.6312,1.6315,1.6338,1.6339,1.6339,1.634,0,1.6068,1.6072,1.6093,1.6117,1.6134,1.6153,1.6171,1.6183,1.6192,1.621,1.6237,1.6253,1.6285,1.6311,1.6336,1.6347,1.6345,1.6346,1.6352,1.6351,1.6348,1.6351,1.6284,1.6344,1.6343,1.6343,1.6343,1.6343,1.6101,1.6119,1.6138,1.6162,1.6177,1.6194,1.6213,1.6224,1.6246,1.6273,1.6275,1.6304,1.6323,1.6357,1.6369,1.6392,1.6386,1.6395,1.6398,1.64,1.6402,1.6344,1.6397,1.6397,1.6397,1.6397,1.6397,0,1.6148,1.616,1.6182,1.6208,1.6227,1.6224,1.6245,1.6261,1.6286,1.6304,1.6325,1.6356,1.6382,1.6397,1.6422,1.6438,1.6438,1.6444,1.6443,1.6446,1.6405,1.6398,1.6444,1.6444,1.6444,1.6444,1.6444,1.6444,1.6175,1.6206,1.6212,1.6252,1.6264,1.6292,1.6304,1.632,1.6335,1.637,1.6391,1.64,1.6418,1.6445,1.6468,1.6472,1.6482,1.6489,1.6492,1.6454,1.6449,1.6444,1.6437,1.6491,1.6491,1.6531,1.6532,1.6532]},{"header":{"parameterUnit":"m.s-1","parameterCategory":1,"la1":30.2991,"la2":30.254,"lo1":-89.0895,"lo2":-89.0444,"dx":0.0017,"dy":0.0017,"nx":28,"ny":28,"refTime":"2022-11-16T15:00:00:Z","depth":0,"parameterNumber":3,"parameterNumberName":"V-component_of_WINDS"},"data":[0,0,0,0,0,0,0,0,0,0,0,0,0,0,0,0,0,0,0,0,0,0,0,0,0,0,0,0,0,0,0,0,0,0,0,0,0,0,0,0,0,0,0,0,0,0,0,0,0,0,0,0,0,0,0,0,0,0,-3.9505,-3.9505,0,-3.9567,-3.9567,-3.9568,-3.9556,-3.9555,-3.9554,-3.9552,-3.9613,-3.9616,-3.9618,0,0,0,0,0,0,0,0,0,0,0,0,0,-3.9374,-3.9377,-3.9505,-3.9506,-3.9506,-3.9567,-3.9567,-3.9568,-3.9556,-3.9555,-3.9553,-3.9552,-3.9612,-3.9615,-3.9619,0,0,0,0,0,0,0,0,0,0,0,0,0,-3.9433,-3.9378,-3.9505,-3.9508,-3.9508,-3.9566,-3.9567,-3.9569,-3.9556,-3.9555,-3.9553,-3.9551,-3.9611,-3.9615,-3.9619,-3.9677,0,0,-3.9631,-3.9633,0,0,0,0,0,0,0,0,-3.943,-3.9438,-3.9506,-3.9507,-3.9509,-3.9552,-3.9544,-3.9605,-3.9557,-3.9538,-3.9552,-3.9551,-3.9594,-3.9599,-3.9614,-3.968,-3.9683,-3.9632,-3.9634,-3.9636,-3.9637,0,0,0,0,0,0,0,-3.9426,-3.9435,-3.9529,-3.9507,-3.9509,-3.9505,-3.9512,-3.9555,-3.9574,-3.9539,-3.9539,-3.9546,-3.9594,-3.9611,-3.9616,-3.9684,-3.9631,-3.9635,-3.9637,-3.9639,-3.9802,-3.9803,0,0,0,0,0,0,-3.9421,-3.9432,-3.9527,-3.9531,-3.9464,-3.9509,-3.9516,-3.954,-3.9574,-3.9578,-3.9548,-3.9546,-3.9605,-3.9611,-3.9618,-3.9689,-3.9636,-3.9639,-3.9642,-3.98,-3.9802,-3.9804,0,0,0,0,0,0,-3.9418,-3.943,-3.9525,-3.9481,-3.9493,-3.9513,-3.9539,-3.9542,-3.9558,-3.958,-3.9583,-3.9561,-3.9604,-3.9612,-3.9663,-3.9691,-3.9641,-3.9645,-3.9797,-3.98,-3.9803,-3.9832,0,0,0,0,0,0,-3.9414,-3.9429,-3.9451,-3.9482,-3.9496,-3.957,-3.9541,-3.9544,-3.9565,-3.9563,-3.9594,-3.9597,-3.9603,-3.9657,-3.9667,-3.9696,-3.9648,-3.9795,-3.9799,-3.9802,-3.9829,-3.9836,-3.9842,0,0,0,0,0,-3.941,-3.9456,-3.9452,-3.9464,-3.9524,-3.9571,-3.9579,-3.9585,-3.9568,-3.9591,-3.9605,-3.9596,-3.9687,-3.9663,-3.9674,-3.9704,-3.9793,-3.9798,-3.9802,-3.9826,-3.9835,-3.9842,0,0,0,0,0,0,-3.9427,-3.946,-3.9456,-3.9514,-3.954,-3.9569,-3.9598,-3.9594,-3.9625,-3.9621,-3.9627,-3.9634,-3.9686,-3.97,-3.9673,-3.9763,-3.9737,-3.9744,-3.9752,-3.976,-3.9767,-3.9762,-3.9651,0,0,0,0,0,-3.9437,-3.9473,-3.95,-3.9548,-3.9562,-3.9578,-3.9598,-3.9601,-3.9628,-3.9639,-3.9657,-3.9682,-3.9717,-3.9739,-3.9772,-3.9831,-3.9838,-3.9857,-3.9864,-3.9869,-3.9875,-3.9908,-3.9918,-3.9818,-3.9818,-3.9818,0,0,-3.9459,-3.9482,-3.9504,-3.9552,-3.9573,-3.961,-3.9587,-3.9626,-3.9654,-3.9644,-3.9694,-3.9708,-3.9737,-3.9793,-3.9819,-3.9806,-3.9904,-3.9875,-3.9878,-3.9882,-3.9914,-3.9923,-3.9932,-3.9821,-3.9821,-3.982,0,0,-3.9518,-3.9539,-3.9582,-3.9603,-3.9635,-3.9646,-3.9656,-3.9687,-3.9696,-3.9746,-3.9741,-3.9773,-3.9832,-3.9853,-3.9872,-3.9941,-3.9934,-3.9951,-3.9985,-4.0018,-4.0025,-4.0032,-4.0058,-4.0067,-3.9957,-3.9957,-3.9957,0,-3.9541,-3.9597,-3.9604,-3.9645,-3.9667,-3.9662,-3.9706,-3.9726,-3.9766,-3.9781,-3.9767,-3.9842,-3.9861,-3.9923,-3.994,-3.9955,-3.9967,-3.9948,-4.0024,-4.0031,-4.0038,-4.0062,-4.0072,-3.9959,-3.9959,-3.9958,-3.9958,0,-3.9624,-3.9663,-3.9694,-3.9735,-3.9761,-3.9803,-3.9816,-3.9841,-3.9842,-3.9854,-3.9906,-3.9929,-3.9967,-3.9981,-3.9982,-4.0043,-4.0035,-4.0022,-3.9997,-4.0049,-4.0072,-4.0082,-3.9962,-3.9961,-3.996,-3.996,0,0,-3.9694,-3.9741,-3.9752,-3.9771,-3.9807,-3.9837,-3.9879,-3.9918,-3.9939,-3.9967,-4.0003,-4.0054,-4.0043,-4.0064,-4.0067,-4.0096,-4.0151,-4.008,-4.0081,-4.0093,-4.0221,-4.0231,-4.0242,-4.0147,-4.0149,-4.015,-4.0219,0,-3.9758,-3.9833,-3.9842,-3.9909,-3.9946,-3.9942,-3.9979,-4.0004,-4.0017,-4.005,-4.0063,-4.01,-4.0082,-4.0095,-4.0123,-4.0138,-4.0177,-4.0133,-4.018,-4.0182,-4.0174,-4.0254,-4.0264,-4.0328,-4.0228,-4.023,-4.0231,0,-3.9841,-3.9874,-3.9945,-3.9978,-3.9993,-4.0026,-4.0063,-4.0094,-4.0124,-4.0131,-4.0156,-4.0156,-4.0199,-4.0172,-4.0232,-4.0203,-4.0222,-4.0233,-4.0236,-4.0241,-4.021,-4.0262,-4.0349,-4.0359,-4.0245,-4.0244,-4.0243,0,-3.9887,-3.9948,-4.0,-4.0016,-4.0055,-4.0078,-4.0095,-4.0123,-4.0146,-4.0178,-4.0193,-4.0229,-4.0249,-4.0277,-4.0287,-4.0266,-4.0347,-4.032,-4.0355,-4.0354,-4.0372,-4.0371,-4.0464,-4.0383,-4.0383,-4.0383,-4.0383,0,-3.9956,-4.0001,-4.0021,-4.0052,-4.0102,-4.0111,-4.016,-4.0176,-4.0201,-4.0235,-4.0233,-4.0265,-4.0276,-4.031,-4.0318,-4.0367,-4.0376,-4.0383,-4.0385,-4.0384,-4.0383,-4.0397,-4.0393,-4.0386,-4.0385,-4.0385,-4.0384,0,-4.0016,-4.0031,-4.0087,-4.012,-4.0129,-4.0164,-4.0192,-4.0222,-4.0235,-4.0279,-4.0289,-4.0309,-4.0349,-4.0362,-4.041,-4.0415,-4.0473,-4.0471,-4.0464,-4.0464,-4.0498,-4.0495,-4.0604,-4.062,-4.0528,-4.0529,-4.053,0,-4.006,-4.0094,-4.0131,-4.0155,-4.0173,-4.0211,-4.0235,-4.0246,-4.0271,-4.0308,-4.0334,-4.0374,-4.0407,-4.0471,-4.049,-4.0526,-4.0525,-4.0561,-4.053,-4.0529,-4.0527,-4.0525,-4.0529,-4.0567,-4.0567,-4.0568,-4.0569,0,-4.0136,-4.0143,-4.0178,-4.0217,-4.0247,-4.0277,-4.0307,-4.0326,-4.0341,-4.0369,-4.0411,-4.0437,-4.0487,-4.0527,-4.0565,-4.0582,-4.0578,-4.0578,-4.0589,-4.0588,-4.0583,-4.0588,-4.0481,-4.0576,-4.0575,-4.0575,-4.0574,-4.0574,-4.019,-4.0221,-4.0252,-4.0292,-4.0316,-4.0344,-4.0375,-4.0393,-4.0428,-4.0471,-4.0475,-4.052,-4.055,-4.0601,-4.062,-4.0655,-4.0645,-4.0659,-4.0663,-4.0667,-4.067,-4.0578,-4.0662,-4.0662,-4.0662,-4.0661,-4.0661,0,-4.0268,-4.0288,-4.0325,-4.0368,-4.0399,-4.0394,-4.0427,-4.0454,-4.0494,-4.0523,-4.0556,-4.0604,-4.0644,-4.0666,-4.0705,-4.0729,-4.0729,-4.0739,-4.0738,-4.0742,-4.0676,-4.0664,-4.0739,-4.0739,-4.0739,-4.0739,-4.0739,-4.0739,-4.0312,-4.0364,-4.0375,-4.0439,-4.0459,-4.0505,-4.0524,-4.055,-4.0573,-4.0629,-4.0662,-4.0676,-4.0703,-4.0744,-4.078,-4.0785,-4.08,-4.0812,-4.0817,-4.0755,-4.0747,-4.0739,-4.0728,-4.0815,-4.0815,-4.088,-4.0881,-4.0881]}]]